STARLINK-1114, 44927

Orbit data source: Space-Track

STARLINK-1114, 44927 is a payload satellite owned by SpaceX/Seattle (US) in LEO that was launched on Tue, 07 Jan 2020 UTC via an FALCON 9 launch vehicle from the Air Force Eastern Test Range (AFETR). Payload-class satellites include a variety of spacecraft equipped with specific instruments for various scientific and technological missions. These include communications satellites like Starlink; space stations such as the ISS; scientific satellites like the Hubble; Earth observation satellites from companies like Planet Labs, Umbra, and HawkEye 360; GPS; miniature CubeSats for education and research; and military/defense satellites.

Loading next visibility...
Identifier
44927, 2020-001P
Orbit
LEO
Country
Flag of USUS
Related business
Manufacturer
SpaceX/Seattle
Mission
Operational Commercial Communications
Bus & Motor
STARLINK, Unknown motor
Mass
260 kg wet, ~248 kg dry
Launch date (UTC)
2020-01-07 (6 years ago)
Launch vehicle
FALCON 9
Launch site
Air Force Eastern Test Range (AFETR)
Object type
Payload
Rocket body
Debris
Shape & HBR
Box + 1 Pan, 10.1 m
Radar Cross Section
13.562 m², Large (>1 m²)

Expand to show TLE details & history
Last TLE update: 2 days ago

TLE from 2 days ago
0 STARLINK-1114
1 44927U 20001P   25312.62552148 -.00000468  00000-0 -12516-4 0  9994
2 44927  53.0539 170.0986 0001309  97.9311 262.1826 15.06402580321607
Epoch: 2025-11-08T15:00Z
TLE epoch observation values (Epoch: 2025-11-08T15:00:45.055Z)
Latitude
-0.00009°
Longitude
-103.14164°
Altitude
548.206 km
Speed
7.589 km/s
True Right ascension
11h 20m 23s
True Declination
0° 00' 00"
Sunlit
Object was in daylight at epoch
Visualization orbit readout
Latitude
Unknown
Longitude
Unknown
Altitude
Unknown
Speed
Unknown
Apparent Right ascension
Unknown
Apparent Declination
Unknown
Sunlit
N/A
Visualization observer readout
Local Sidereal Time
03:12:55
Azimuth
Unknown
Elevation
Unknown
Doppler factor
Unknown
Orbital elements
Apogee altitude
548.381 km
Perigee altitude
546.568 km
Semi-major axis
6,925.611 km
Eccentricity
0.00013
Inclination
53.0539°
RAAN
170.0986°
Arg. of periapsis
97.9311°
True anomaly
262.16774°
Mean anomaly
262.1826°
Eccentric anomaly
262.17517°
Mean motion
3.76579 °/min
Orbital period
95.6 mins
BSTAR
-0.000012516
Loading maneuver chart data...
Computing Atmospheric mass density...

Documentation

Showing up to 5 results
|